Weather History for Augusta Bush, GA

Change the Weather History Date:

Wednesday, April 10, 2013

  Actual Average Record
Temperature  
Mean Temperature 69 °F 61 °F  
Max Temperature 85 °F 76 °F 90 °F (2001)
Min Temperature 52 °F 47 °F 28 °F (1996)
Degree Days  
Heating Degree Days 0 5  
Month to date heating degree days 65 56  
Since 1 July heating degree days 2304 2384  
Cooling Degree Days 4 1  
Month to date cooling degree days 6 10  
Year to date cooling degree days 27 28  
Growing Degree Days 18 (Base 50)    
Moisture  
Dew Point 56 °F    
Average Humidity 69    
Maximum Humidity 100    
Minimum Humidity 37    
Precipitation  
Precipitation 0.00 in 0.10 in 1.55 in (1989)
Month to date precipitation 0.87 1.06  
Year to date precipitation 13.98 13.07  
Sea Level Pressure  
Sea Level Pressure 30.09 in    
Wind  
Wind Speed 5 mph (South)    
Max Wind Speed 15 mph    
Max Gust Speed 18 mph    
Visibility 6 miles    
Events Fog    
T = Trace of Precipitation, MM = Missing Value Source: NWS Daily Summary

Daily Weather History Graph

Daily Weather History Graph

Search for Another Location

Airport:

Trip Planner

Search our weather history database for the weather conditions in past years. The results will help you decide how hot, cold, wet, or windy it might be!

Date:

Astronomy

Apr. 10, 2013 Rise Set
Actual Time 7:03 AM EDT 7:55 PM EDT
Civil Twilight 6:38 AM EDT 8:20 PM EDT
Nautical Twilight 6:08 AM EDT 8:50 PM EDT
Astronomical Twilight 5:37 AM EDT 9:21 PM EDT
Moon 7:00 AM EDT (4/10) 8:26 PM EDT (4/10)
Length of Visible Light 13h 42m
Length of Day
12h 51m
Waxing Crescent, 0% of the Moon is Illuminated
Apr 10
Waxing Crescent
Apr 18
First Quarter
Apr 25
Full
May 2
Last Quarter
May 9
New

Hourly Weather History & Observations

Time (EDT) Temp. Heat Index Dew Point Humidity Pressure Visibility Wind Dir Wind Speed Gust Speed Precip Events Conditions
12:53 AM 64.0 °F - 59.0 °F 84% 30.12 in 10.0 mi South 3.5 mph - N/A   Clear
1:53 AM 63.0 °F - 59.0 °F 87% 30.12 in 10.0 mi South 3.5 mph - N/A   Clear
2:53 AM 57.0 °F - 55.0 °F 93% 30.12 in 9.0 mi Calm Calm - N/A   Clear
3:05 AM 55.4 °F - 55.4 °F 100% 30.12 in 1.5 mi East 3.5 mph - N/A   Clear
3:13 AM 55.4 °F - 53.6 °F 94% 30.12 in 0.5 mi Calm Calm - N/A Fog Fog
3:25 AM 57.2 °F - 55.4 °F 94% 30.12 in 1.2 mi Calm Calm - N/A   Partly Cloudy
3:33 AM 57.2 °F - 57.2 °F 100% 30.12 in 3.0 mi Calm Calm - N/A   Partly Cloudy
3:53 AM 57.0 °F - 55.9 °F 96% 30.12 in 5.0 mi Calm Calm - N/A   Clear
4:30 AM 55.4 °F - 53.6 °F 94% 30.12 in 1.8 mi Calm Calm - N/A   Clear
4:34 AM 55.4 °F - 53.6 °F 94% 30.12 in 0.8 mi Calm Calm - N/A   Mist
4:43 AM 55.4 °F - 55.4 °F 100% 30.12 in 0.2 mi Calm Calm - N/A Fog Fog
4:53 AM 55.0 °F - 54.0 °F 96% 30.11 in 0.2 mi Calm Calm - N/A Fog Fog
5:20 AM 55.4 °F - 53.6 °F 94% 30.12 in 1.2 mi Calm Calm - N/A   Overcast
5:30 AM 55.4 °F - 53.6 °F 94% 30.12 in 0.8 mi Calm Calm - N/A   Mist
5:41 AM 53.6 °F - 53.6 °F 100% 30.12 in 0.2 mi Calm Calm - N/A Fog Fog
5:53 AM 54.0 °F - 54.0 °F 100% 30.12 in 0.2 mi Calm Calm - N/A Fog Fog
6:27 AM 51.8 °F - 51.8 °F 100% 30.12 in 0.2 mi Calm Calm - N/A Fog Fog
6:53 AM 55.0 °F - 54.0 °F 96% 30.12 in 0.2 mi Calm Calm - N/A Fog Fog
7:53 AM 55.9 °F - 55.0 °F 97% 30.13 in 0.2 mi Calm Calm - N/A Fog Fog
8:00 AM 55.4 °F - 55.4 °F 100% 30.14 in 0.2 mi Calm Calm - N/A Fog Fog
8:27 AM 60.8 °F - 59.0 °F 94% 30.14 in 0.8 mi Calm Calm - N/A   Mist
8:32 AM 60.8 °F - 60.8 °F 100% 30.14 in 4.0 mi Calm Calm - N/A   Clear
8:53 AM 61.0 °F - 60.1 °F 97% 30.15 in 9.0 mi Calm Calm - N/A   Clear
9:53 AM 72.0 °F - 60.1 °F 66% 30.15 in 10.0 mi South 11.5 mph - N/A   Clear
10:53 AM 75.9 °F - 57.9 °F 54% 30.15 in 10.0 mi South 12.7 mph - N/A   Clear
11:53 AM 78.1 °F - 57.0 °F 48% 30.15 in 10.0 mi South 8.1 mph - N/A   Clear
12:53 PM 80.6 °F 80.8 °F 57.2 °F 45% 30.12 in 10.0 mi South 4.6 mph - N/A   Clear
1:53 PM 82.0 °F 82.1 °F 59.0 °F 45% 30.09 in 10.0 mi SSW 8.1 mph - N/A   Partly Cloudy
2:53 PM 82.4 °F 82.0 °F 57.2 °F 42% 30.07 in 10.0 mi Calm Calm - N/A   Clear
3:53 PM 84.9 °F 83.9 °F 57.0 °F 38% 30.04 in 10.0 mi SSE 9.2 mph - N/A   Clear
4:53 PM 84.9 °F 83.7 °F 55.9 °F 37% 30.01 in 10.0 mi SE 9.2 mph - N/A   Clear
5:53 PM 84.0 °F 83.0 °F 55.9 °F 38% 30.00 in 10.0 mi South 11.5 mph - N/A   Clear
6:53 PM 82.0 °F 81.4 °F 55.0 °F 39% 29.99 in 10.0 mi SSW 6.9 mph - N/A   Clear
7:53 PM 77.0 °F - 54.0 °F 45% 30.00 in 10.0 mi SSW 4.6 mph - N/A   Clear
8:53 PM 66.9 °F - 55.9 °F 68% 29.99 in 10.0 mi Calm Calm - N/A   Clear
9:53 PM 69.1 °F - 55.9 °F 63% 29.99 in 10.0 mi SSE 6.9 mph - N/A   Clear
10:53 PM 70.0 °F - 59.0 °F 68% 29.99 in 10.0 mi SSE 11.5 mph - N/A   Clear
11:53 PM 68.0 °F - 61.0 °F 78% 29.98 in 10.0 mi South 8.1 mph - N/A   Clear